Location: Clair
(33.8067°N, 117.9845°W)
Time: 07:45:28
(UTC+00:00)

Cosmos 1503 Rocket - Pass Details

Date: 14 February 2026
Orbit: 747 x 787 km, 74.0° (Epoch: 12 March)

Event Time Altitude Azimuth Distance (km) Brightness Sun altitude
Exits shadow 13:13:29 30° 251° (WSW) 1,335 4.7 -18.0°
Maximum altitude 13:15:12 38° 292° (WNW) 1,134 4.4 -17.6°
Drops below altitude 10° 13:20:03 10° 0° (N) 2,295 6.4 -16.6°
Sets 13:22:35 0° 8° (N) 3,231 7.3 -16.1°
